| time (UTC) | temp F | wind direction | speed MPH | gust MPH | rain 1hr in | rain 24hr in | rain mn in | humidity % | barometer mb |
| 20260906202507 | 78 | 356 | 0.0 | 4.0 | 0.00 | 0.00 | 0.00 | 63 | 1017.9 |
| 20260906202008 | 78 | 0 | 0.0 | 0.0 | 0.00 | 0.00 | 0.00 | 63 | 1017.9 |
| 20260906201507 | 77 | 0 | 0.0 | 0.0 | 0.00 | 0.00 | 0.00 | 63 | 1018.0 |
| 20260906201007 | 78 | 0 | 0.0 | 0.0 | 0.00 | 0.00 | 0.00 | 63 | 1018.0 |
| 20260906200507 | 78 | 0 | 0.0 | 0.0 | 0.00 | 0.00 | 0.00 | 62 | 1018.1 |
| 20260906200007 | 78 | 39 | 0.0 | 0.0 | 0.00 | 0.00 | 0.00 | 62 | 1018.0 |
| 20260906195507 | 79 | 53 | 1.0 | 4.0 | 0.00 | 0.00 | 0.00 | 62 | 1018.0 |
| 20260906195007 | 79 | 82 | 1.0 | 4.0 | 0.00 | 0.00 | 0.00 | 63 | 1018.0 |
| 20260906194507 | 78 | 94 | 1.0 | 3.0 | 0.00 | 0.00 | 0.00 | 63 | 1018.0 |
| 20260906194007 | 77 | 88 | 2.0 | 4.0 | 0.00 | 0.00 | 0.00 | 61 | 1017.9 |
| 20260906193508 | 77 | 87 | 2.0 | 11.0 | 0.00 | 0.00 | 0.00 | 61 | 1018.2 |
| 20260906193007 | 77 | 91 | 4.0 | 9.0 | 0.00 | 0.00 | 0.00 | 63 | 1018.3 |
| 20260906192507 | 77 | 90 | 6.0 | 12.0 | 0.00 | 0.00 | 0.00 | 61 | 1018.4 |
| 20260906192007 | 78 | 85 | 4.0 | 12.0 | 0.00 | 0.00 | 0.00 | 39 | 1018.3 |
| 20260906191507 | 78 | 69 | 3.0 | 4.0 | 0.00 | 0.00 | 0.00 | 61 | 1018.4 |
| 20260906191007 | 78 | 68 | 3.0 | 11.0 | 0.00 | 0.00 | 0.00 | 60 | 1018.5 |
| 20260906190507 | 78 | 63 | 2.0 | 11.0 | 0.00 | 0.00 | 0.00 | 61 | 1018.6 |
| 20260906190008 | 78 | 53 | 2.0 | 5.0 | 0.00 | 0.00 | 0.00 | 61 | 1018.6 |
| 20260906185507 | 78 | 44 | 1.0 | 7.0 | 0.00 | 0.00 | 0.00 | 39 | 1018.6 |
| 20260906185028 | 77 | 4 | 2.0 | 3.0 | 0.00 | 0.00 | 0.00 | 61 | 1018.6 |
| 20260906184507 | 77 | 360 | 2.0 | 11.0 | 0.00 | 0.00 | 0.00 | 61 | 1018.7 |
| 20260906184007 | 77 | 360 | 1.0 | 5.0 | 0.00 | 0.00 | 0.00 | 63 | 1018.8 |
| 20260906183507 | 77 | 360 | 3.0 | 8.0 | 0.00 | 0.00 | 0.00 | 62 | 1018.6 |
| 20260906183007 | 76 | 360 | 4.0 | 11.0 | 0.00 | 0.00 | 0.00 | 63 | 1018.6 |
| 20260906182507 | 76 | 360 | 4.0 | 12.0 | 0.00 | 0.00 | 0.00 | 62 | 1018.6 |
| 20260906182008 | 77 | 360 | 1.0 | 11.0 | 0.00 | 0.00 | 0.00 | 64 | 1018.7 |
| 20260906181528 | 77 | 0 | 0.0 | 0.0 | 0.00 | 0.00 | 0.00 | 62 | 1018.7 |
| 20260906181007 | 77 | 80 | 1.0 | 0.0 | 0.00 | 0.00 | 0.00 | 41 | 1018.8 |
| 20260906180507 | 77 | 78 | 2.0 | 9.0 | 0.00 | 0.00 | 0.00 | 66 | 1018.8 |
| 20260906180007 | 76 | 77 | 2.0 | 13.0 | 0.00 | 0.00 | 0.00 | 66 | 1018.9 |
| 20260906175507 | 76 | 84 | 5.0 | 5.0 | 0.00 | 0.00 | 0.00 | 64 | 1019.0 |
| 20260906175028 | 76 | 86 | 6.0 | 12.0 | 0.00 | 0.00 | 0.00 | 63 | 1019.1 |
| 20260906174507 | 76 | 88 | 2.0 | 13.0 | 0.00 | 0.00 | 0.00 | 44 | 1019.1 |
| 20260906174028 | 76 | 0 | 0.0 | 0.0 | 0.00 | 0.00 | 0.00 | 63 | 1019.1 |
| 20260906173508 | 76 | 79 | 0.0 | 0.0 | 0.00 | 0.00 | 0.00 | 62 | 1019.2 |
| 20260906173007 | 76 | 78 | 1.0 | 7.0 | 0.00 | 0.00 | 0.00 | 63 | 1019.1 |
| 20260906172507 | 76 | 78 | 2.0 | 11.0 | 0.00 | 0.00 | 0.00 | 64 | 1019.2 |
| 20260906172007 | 76 | 78 | 3.0 | 7.0 | 0.00 | 0.00 | 0.00 | 66 | 1019.2 |
| 20260906171508 | 76 | 79 | 3.0 | 9.0 | 0.00 | 0.00 | 0.00 | 66 | 1019.2 |
| 20260906171007 | 75 | 73 | 3.0 | 9.0 | 0.00 | 0.00 | 0.00 | 66 | 1019.2 |
| 20260906170507 | 75 | 61 | 3.0 | 8.0 | 0.00 | 0.00 | 0.00 | 66 | 1019.3 |
| 20260906170007 | 75 | 50 | 3.0 | 5.0 | 0.00 | 0.00 | 0.00 | 64 | 1019.3 |
| 20260906165507 | 76 | 38 | 2.0 | 8.0 | 0.00 | 0.00 | 0.00 | 64 | 1019.1 |
| 20260906165007 | 76 | 36 | 3.0 | 9.0 | 0.00 | 0.00 | 0.00 | 67 | 1019.1 |
| 20260906164507 | 76 | 74 | 5.0 | 9.0 | 0.00 | 0.00 | 0.00 | 66 | 1019.1 |
| 20260906164007 | 75 | 81 | 5.0 | 12.0 | 0.00 | 0.00 | 0.00 | 64 | 1019.1 |
| 20260906163507 | 76 | 81 | 3.0 | 7.0 | 0.00 | 0.00 | 0.00 | 68 | 1019.1 |
| 20260906163007 | 75 | 83 | 2.0 | 5.0 | 0.00 | 0.00 | 0.00 | 67 | 1019.1 |
| 20260906162507 | 75 | 80 | 1.0 | 7.0 | 0.00 | 0.00 | 0.00 | 66 | 1019.2 |
| 20260906162007 | 76 | 96 | 3.0 | 5.0 | 0.00 | 0.00 | 0.00 | 68 | 1019.2 |
| 20260906161507 | 75 | 84 | 4.0 | 12.0 | 0.00 | 0.00 | 0.00 | 69 | 1019.2 |
| 20260906161007 | 75 | 53 | 2.0 | 11.0 | 0.00 | 0.00 | 0.00 | 68 | 1019.3 |
| 20260906160507 | 75 | 69 | 2.0 | 5.0 | 0.00 | 0.00 | 0.00 | 70 | 1019.3 |
| 20260906160007 | 75 | 89 | 4.0 | 5.0 | 0.00 | 0.00 | 0.00 | 48 | 1019.3 |
| 20260906155507 | 75 | 88 | 5.0 | 9.0 | 0.00 | 0.00 | 0.00 | 48 | 1019.3 |
| 20260906155007 | 75 | 87 | 4.0 | 11.0 | 0.00 | 0.00 | 0.00 | 70 | 1019.2 |
| 20260906154507 | 75 | 78 | 4.0 | 11.0 | 0.00 | 0.00 | 0.00 | 70 | 1019.2 |
| 20260906154007 | 74 | 62 | 3.0 | 13.0 | 0.00 | 0.00 | 0.00 | 69 | 1019.3 |
| 20260906153507 | 74 | 35 | 1.0 | 5.0 | 0.00 | 0.00 | 0.00 | 70 | 1019.3 |
| 20260906153007 | 74 | 67 | 2.0 | 7.0 | 0.00 | 0.00 | 0.00 | 71 | 1019.3 |
| 20260906152507 | 74 | 73 | 2.0 | 7.0 | 0.00 | 0.00 | 0.00 | 48 | 1019.3 |
| 20260906152007 | 73 | 82 | 3.0 | 9.0 | 0.00 | 0.00 | 0.00 | 71 | 1019.3 |
| 20260906151507 | 73 | 84 | 4.0 | 5.0 | 0.00 | 0.00 | 0.00 | 73 | 1019.1 |
| 20260906151028 | 73 | 84 | 3.0 | 9.0 | 0.00 | 0.00 | 0.00 | 71 | 1019.2 |
| 20260906150528 | 73 | 83 | 1.0 | 7.0 | 0.00 | 0.00 | 0.00 | 73 | 1019.1 |
| 20260906150007 | 72 | 81 | 2.0 | 7.0 | 0.00 | 0.00 | 0.00 | 74 | 1019.2 |
| 20260906145507 | 72 | 68 | 3.0 | 5.0 | 0.00 | 0.00 | 0.00 | 73 | 1019.2 |
| 20260906145028 | 72 | 64 | 3.0 | 11.0 | 0.00 | 0.00 | 0.00 | 73 | 1019.1 |
| 20260906144507 | 72 | 65 | 2.0 | 5.0 | 0.00 | 0.00 | 0.00 | 73 | 1019.1 |
| 20260906144028 | 72 | 68 | 2.0 | 7.0 | 0.00 | 0.00 | 0.00 | 74 | 1019.1 |
| 20260906143507 | 71 | 65 | 2.0 | 11.0 | 0.00 | 0.00 | 0.00 | 74 | 1019.1 |
| 20260906143007 | 71 | 58 | 2.0 | 9.0 | 0.00 | 0.00 | 0.00 | 74 | 1019.1 |
| 20260906142507 | 71 | 65 | 1.0 | 3.0 | 0.00 | 0.00 | 0.00 | 74 | 1019.2 |
| 20260906142007 | 70 | 71 | 3.0 | 5.0 | 0.00 | 0.00 | 0.00 | 74 | 1019.1 |
| 20260906141507 | 70 | 79 | 3.0 | 9.0 | 0.00 | 0.00 | 0.00 | 74 | 1019.1 |
| 20260906141007 | 70 | 86 | 2.0 | 5.0 | 0.00 | 0.00 | 0.00 | 74 | 1019.1 |
| 20260906140507 | 69 | 88 | 2.0 | 5.0 | 0.00 | 0.00 | 0.00 | 73 | 1019.0 |
| 20260906140007 | 69 | 88 | 2.0 | 5.0 | 0.00 | 0.00 | 0.00 | 73 | 1019.0 |
| 20260906135507 | 68 | 86 | 3.0 | 5.0 | 0.00 | 0.00 | 0.00 | 74 | 1019.0 |
| 20260906135007 | 68 | 85 | 3.0 | 8.0 | 0.00 | 0.00 | 0.00 | 73 | 1018.9 |
| 20260906134507 | 67 | 82 | 3.0 | 5.0 | 0.00 | 0.00 | 0.00 | 73 | 1019.0 |
| 20260906134007 | 67 | 80 | 3.0 | 7.0 | 0.00 | 0.00 | 0.00 | 73 | 1018.9 |
| 20260906133507 | 66 | 77 | 3.0 | 5.0 | 0.00 | 0.00 | 0.00 | 73 | 1018.8 |
| 20260906133028 | 66 | 76 | 4.0 | 7.0 | 0.00 | 0.00 | 0.00 | 73 | 1018.8 |
| 20260906132507 | 66 | 77 | 4.0 | 12.0 | 0.00 | 0.00 | 0.00 | 72 | 1018.9 |
| 20260906132007 | 65 | 41 | 3.0 | 9.0 | 0.00 | 0.00 | 0.00 | 72 | 1018.7 |
| 20260906131507 | 64 | 1 | 3.0 | 5.0 | 0.00 | 0.00 | 0.00 | 71 | 1018.7 |
| 20260906131007 | 64 | 31 | 2.0 | 7.0 | 0.00 | 0.00 | 0.00 | 71 | 1018.7 |
| 20260906130507 | 64 | 77 | 2.0 | 5.0 | 0.00 | 0.00 | 0.00 | 72 | 1018.6 |
| 20260906130028 | 63 | 59 | 4.0 | 7.0 | 0.00 | 0.00 | 0.00 | 71 | 1018.5 |
| 20260906125528 | 62 | 54 | 5.0 | 12.0 | 0.00 | 0.00 | 0.00 | 71 | 1018.5 |
| 20260906125007 | 62 | 54 | 4.0 | 11.0 | 0.00 | 0.00 | 0.00 | 72 | 1018.4 |
| 20260906124508 | 62 | 59 | 3.0 | 7.0 | 0.00 | 0.00 | 0.00 | 73 | 1018.5 |
| 20260906124007 | 62 | 72 | 2.0 | 7.0 | 0.00 | 0.00 | 0.00 | 74 | 1018.4 |
| 20260906123507 | 61 | 71 | 1.0 | 9.0 | 0.00 | 0.00 | 0.00 | 74 | 1018.4 |
| 20260906123007 | 61 | 51 | 1.0 | 5.0 | 0.00 | 0.00 | 0.00 | 74 | 1018.4 |
| 20260906122528 | 61 | 34 | 1.0 | 5.0 | 0.00 | 0.00 | 0.00 | 75 | 1018.4 |
| 20260906122007 | 60 | 9 | 1.0 | 4.0 | 0.00 | 0.00 | 0.00 | 75 | 1018.3 |
| 20260906121507 | 60 | 360 | 1.0 | 4.0 | 0.00 | 0.00 | 0.00 | 75 | 1018.3 |
| 20260906121007 | 60 | 360 | 0.0 | 3.0 | 0.00 | 0.00 | 0.00 | 75 | 1018.1 |
| 20260906120507 | 60 | 360 | 0.0 | 0.0 | 0.00 | 0.00 | 0.00 | 75 | 1018.0 |
| 20260906120028 | 59 | 360 | 0.0 | 4.0 | 0.00 | 0.00 | 0.00 | 75 | 1018.0 |
| 20260906115528 | 59 | 360 | 0.0 | 3.0 | 0.00 | 0.00 | 0.00 | 75 | 1018.0 |
| 20260906115007 | 58 | 360 | 0.0 | 3.0 | 0.00 | 0.00 | 0.00 | 75 | 1017.8 |
| 20260906114529 | 58 | 360 | 0.0 | 4.0 | 0.00 | 0.00 | 0.00 | 75 | 1017.9 |
| 20260906114007 | 58 | 360 | 0.0 | 1.0 | 0.00 | 0.00 | 0.00 | 75 | 1017.8 |
| 20260906113507 | 58 | 360 | 0.0 | 3.0 | 0.00 | 0.00 | 0.00 | 74 | 1017.7 |
| 20260906113007 | 57 | 360 | 0.0 | 3.0 | 0.00 | 0.00 | 0.00 | 74 | 1017.7 |
| 20260906112507 | 57 | 360 | 0.0 | 3.0 | 0.00 | 0.00 | 0.00 | 74 | 1017.7 |
| 20260906112007 | 57 | 360 | 0.0 | 3.0 | 0.00 | 0.00 | 0.00 | 74 | 1017.6 |
| 20260906111507 | 57 | 360 | 0.0 | 1.0 | 0.00 | 0.00 | 0.00 | 74 | 1017.6 |
| 20260906111007 | 57 | 360 | 0.0 | 3.0 | 0.00 | 0.00 | 0.00 | 74 | 1017.6 |
| 20260906110507 | 57 | 360 | 0.0 | 3.0 | 0.00 | 0.00 | 0.00 | 74 | 1017.6 |
| 20260906110007 | 57 | 360 | 0.0 | 3.0 | 0.00 | 0.00 | 0.00 | 74 | 1017.6 |
| 20260906105507 | 57 | 360 | 0.0 | 3.0 | 0.00 | 0.00 | 0.00 | 74 | 1017.5 |
| 20260906105007 | 57 | 360 | 0.0 | 4.0 | 0.00 | 0.00 | 0.00 | 74 | 1017.5 |
| 20260906104507 | 57 | 360 | 0.0 | 3.0 | 0.00 | 0.00 | 0.00 | 74 | 1017.5 |
| 20260906104007 | 57 | 0 | 0.0 | 0.0 | 0.00 | 0.00 | 0.00 | 74 | 1017.5 |
| 20260906103507 | 57 | 0 | 0.0 | 0.0 | 0.00 | 0.00 | 0.00 | 74 | 1017.4 |
| 20260906103008 | 57 | 0 | 0.0 | 0.0 | 0.00 | 0.00 | 0.00 | 74 | 1017.5 |
| 20260906102507 | 57 | 0 | 0.0 | 0.0 | 0.00 | 0.00 | 0.00 | 74 | 1017.5 |
| 20260906102028 | 57 | 0 | 0.0 | 0.0 | 0.00 | 0.00 | 0.00 | 74 | 1017.5 |
| 20260906101507 | 57 | 0 | 0.0 | 0.0 | 0.00 | 0.00 | 0.00 | 74 | 1017.4 |
| 20260906101007 | 57 | 360 | 0.0 | 0.0 | 0.00 | 0.00 | 0.00 | 74 | 1017.5 |
| 20260906100507 | 57 | 360 | 0.0 | 1.0 | 0.00 | 0.00 | 0.00 | 75 | 1017.4 |
| 20260906100007 | 57 | 360 | 0.0 | 1.0 | 0.00 | 0.00 | 0.00 | 75 | 1017.4 |
| 20260906095507 | 57 | 360 | 0.0 | 1.0 | 0.00 | 0.00 | 0.00 | 75 | 1017.4 |
| 20260906095007 | 57 | 0 | 0.0 | 0.0 | 0.00 | 0.00 | 0.00 | 75 | 1017.4 |
| 20260906094507 | 57 | 0 | 0.0 | 0.0 | 0.00 | 0.00 | 0.00 | 75 | 1017.4 |
| 20260906094007 | 57 | 0 | 0.0 | 0.0 | 0.00 | 0.00 | 0.00 | 75 | 1017.4 |
| 20260906093528 | 57 | 360 | 0.0 | 0.0 | 0.00 | 0.00 | 0.00 | 75 | 1017.3 |
| 20260906093007 | 57 | 360 | 0.0 | 1.0 | 0.00 | 0.00 | 0.00 | 75 | 1017.3 |
| 20260906092507 | 57 | 0 | 0.0 | 0.0 | 0.00 | 0.00 | 0.00 | 75 | 1017.2 |
| 20260906092007 | 57 | 0 | 0.0 | 0.0 | 0.00 | 0.00 | 0.00 | 75 | 1017.2 |
| 20260906091507 | 57 | 0 | 0.0 | 0.0 | 0.00 | 0.00 | 0.00 | 77 | 1017.1 |
| 20260906091007 | 57 | 0 | 0.0 | 0.0 | 0.00 | 0.00 | 0.00 | 77 | 1017.1 |
| 20260906090528 | 57 | 0 | 0.0 | 0.0 | 0.00 | 0.00 | 0.00 | 77 | 1017.1 |
| 20260906090007 | 57 | 0 | 0.0 | 0.0 | 0.00 | 0.00 | 0.00 | 77 | 1017.0 |
| 20260906085507 | 57 | 0 | 0.0 | 0.0 | 0.00 | 0.00 | 0.00 | 77 | 1017.0 |
| 20260906085028 | 57 | 0 | 0.0 | 0.0 | 0.00 | 0.00 | 0.00 | 77 | 1017.0 |
| 20260906084508 | 57 | 0 | 0.0 | 0.0 | 0.00 | 0.00 | 0.00 | 77 | 1017.0 |
| 20260906084028 | 57 | 0 | 0.0 | 0.0 | 0.00 | 0.00 | 0.00 | 77 | 1016.8 |
| 20260906083507 | 57 | 0 | 0.0 | 0.0 | 0.00 | 0.00 | 0.00 | 77 | 1016.8 |
| 20260906083007 | 57 | 0 | 0.0 | 0.0 | 0.00 | 0.00 | 0.00 | 77 | 1016.8 |
| 20260906082507 | 57 | 0 | 0.0 | 0.0 | 0.00 | 0.00 | 0.00 | 78 | 1016.8 |
| 20260906082007 | 57 | 0 | 0.0 | 0.0 | 0.00 | 0.00 | 0.00 | 78 | 1016.8 |
| 20260906081508 | 57 | 0 | 0.0 | 0.0 | 0.00 | 0.00 | 0.00 | 78 | 1016.8 |
| 20260906081007 | 57 | 0 | 0.0 | 0.0 | 0.00 | 0.00 | 0.00 | 78 | 1016.8 |
| 20260906080528 | 57 | 0 | 0.0 | 0.0 | 0.00 | 0.00 | 0.00 | 78 | 1016.8 |
| 20260906080007 | 57 | 0 | 0.0 | 0.0 | 0.00 | 0.00 | 0.00 | 78 | 1016.8 |
| 20260906075507 | 57 | 0 | 0.0 | 0.0 | 0.00 | 0.00 | 0.00 | 78 | 1016.6 |
| 20260906075008 | 57 | 0 | 0.0 | 0.0 | 0.00 | 0.00 | 0.00 | 78 | 1016.6 |
| 20260906074507 | 57 | 0 | 0.0 | 0.0 | 0.00 | 0.00 | 0.00 | 78 | 1016.5 |
| 20260906074007 | 57 | 0 | 0.0 | 0.0 | 0.00 | 0.00 | 0.00 | 78 | 1016.6 |
| 20260906073040 | 58 | 0 | 0.0 | 0.0 | 0.00 | 0.00 | 0.00 | 78 | 1016.6 |
| 20260906072519 | 58 | 0 | 0.0 | 0.0 | 0.00 | 0.00 | 0.00 | 78 | 1016.6 |
| 20260906072019 | 58 | 0 | 0.0 | 0.0 | 0.00 | 0.00 | 0.00 | 78 | 1016.5 |
| 20260906071540 | 58 | 0 | 0.0 | 0.0 | 0.00 | 0.00 | 0.00 | 78 | 1016.5 |
| 20260906071019 | 58 | 0 | 0.0 | 0.0 | 0.00 | 0.00 | 0.00 | 78 | 1016.4 |
| 20260906070519 | 58 | 0 | 0.0 | 0.0 | 0.00 | 0.00 | 0.00 | 78 | 1016.5 |
| 20260906070019 | 58 | 0 | 0.0 | 0.0 | 0.00 | 0.00 | 0.00 | 78 | 1016.6 |
| 20260906065519 | 58 | 0 | 0.0 | 0.0 | 0.00 | 0.00 | 0.00 | 78 | 1016.5 |
| 20260906065040 | 58 | 0 | 0.0 | 0.0 | 0.00 | 0.00 | 0.00 | 78 | 1016.5 |
| 20260906064519 | 58 | 0 | 0.0 | 0.0 | 0.00 | 0.00 | 0.00 | 78 | 1016.6 |
| 20260906064019 | 58 | 0 | 0.0 | 0.0 | 0.00 | 0.00 | 0.00 | 79 | 1016.4 |
| 20260906063540 | 59 | 0 | 0.0 | 0.0 | 0.00 | 0.00 | 0.00 | 79 | 1016.4 |
| 20260906063019 | 59 | 0 | 0.0 | 0.0 | 0.00 | 0.00 | 0.00 | 79 | 1016.5 |
| 20260906062519 | 59 | 0 | 0.0 | 0.0 | 0.00 | 0.00 | 0.00 | 79 | 1016.5 |
| 20260906062019 | 59 | 0 | 0.0 | 0.0 | 0.00 | 0.00 | 0.00 | 78 | 1016.4 |
| 20260906061540 | 59 | 0 | 0.0 | 0.0 | 0.00 | 0.00 | 0.00 | 78 | 1016.4 |
| 20260906061019 | 59 | 0 | 0.0 | 0.0 | 0.00 | 0.00 | 0.00 | 78 | 1016.4 |
| 20260906060519 | 59 | 360 | 0.0 | 0.0 | 0.00 | 0.00 | 0.00 | 78 | 1016.5 |
| 20260906060019 | 59 | 360 | 0.0 | 1.0 | 0.00 | 0.00 | 0.00 | 78 | 1016.5 |
| 20260906055519 | 59 | 0 | 0.0 | 0.0 | 0.00 | 0.00 | 0.00 | 78 | 1016.5 |
| 20260906055040 | 60 | 0 | 0.0 | 0.0 | 0.00 | 0.00 | 0.00 | 78 | 1016.5 |
| 20260906054519 | 60 | 0 | 0.0 | 0.0 | 0.00 | 0.00 | 0.00 | 78 | 1016.5 |
| 20260906054019 | 60 | 0 | 0.0 | 0.0 | 0.00 | 0.00 | 0.00 | 78 | 1016.5 |
| 20260906053540 | 60 | 0 | 0.0 | 0.0 | 0.00 | 0.00 | 0.00 | 79 | 1016.5 |
| 20260906053019 | 60 | 0 | 0.0 | 1.0 | 0.00 | 0.00 | 0.00 | 78 | 1016.5 |
| 20260906052519 | 60 | 360 | 0.0 | 0.0 | 0.00 | 0.00 | 0.00 | 78 | 1016.5 |
| 20260906052019 | 60 | 360 | 0.0 | 1.0 | 0.00 | 0.00 | 0.00 | 78 | 1016.5 |
| 20260906051540 | 60 | 0 | 0.0 | 0.0 | 0.00 | 0.00 | 0.00 | 79 | 1016.5 |
| 20260906051019 | 60 | 360 | 0.0 | 1.0 | 0.00 | 0.00 | 0.00 | 79 | 1016.5 |
| 20260906050519 | 60 | 360 | 0.0 | 1.0 | 0.00 | 0.00 | 0.00 | 78 | 1016.4 |
| 20260906050019 | 60 | 360 | 0.0 | 1.0 | 0.00 | 0.00 | 0.00 | 78 | 1016.4 |
| 20260906045519 | 60 | 360 | 0.0 | 0.0 | 0.00 | 0.00 | 0.00 | 78 | 1016.4 |
| 20260906045019 | 60 | 360 | 0.0 | 1.0 | 0.00 | 0.00 | 0.00 | 78 | 1016.4 |
| 20260906044519 | 61 | 360 | 0.0 | 1.0 | 0.00 | 0.00 | 0.00 | 78 | 1016.4 |
| 20260906044020 | 61 | 360 | 0.0 | 4.0 | 0.00 | 0.00 | 0.00 | 78 | 1016.5 |
| 20260906043519 | 61 | 0 | 0.0 | 0.0 | 0.00 | 0.00 | 0.00 | 78 | 1016.5 |
| 20260906043019 | 61 | 0 | 0.0 | 0.0 | 0.00 | 0.00 | 0.00 | 78 | 1016.4 |
| 20260906042519 | 61 | 0 | 0.0 | 0.0 | 0.00 | 0.00 | 0.00 | 78 | 1016.4 |
| 20260906042040 | 61 | 360 | 0.0 | 0.0 | 0.00 | 0.00 | 0.00 | 78 | 1016.4 |
| 20260906041519 | 61 | 360 | 0.0 | 3.0 | 0.00 | 0.00 | 0.00 | 78 | 1016.3 |
| 20260906041019 | 61 | 0 | 0.0 | 0.0 | 0.00 | 0.00 | 0.00 | 78 | 1016.3 |
| 20260906040519 | 61 | 360 | 0.0 | 0.0 | 0.00 | 0.00 | 0.00 | 78 | 1016.2 |
| 20260906040019 | 61 | 360 | 0.0 | 4.0 | 0.00 | 0.00 | 0.00 | 79 | 1016.1 |
| 20260906035541 | 61 | 360 | 0.0 | 4.0 | 0.00 | 0.00 | 0.00 | 79 | 1016.1 |
| 20260906035019 | 61 | 360 | 0.0 | 4.0 | 0.00 | 0.00 | 0.00 | 79 | 1016.1 |
| 20260906034519 | 61 | 360 | 0.0 | 1.0 | 0.00 | 0.00 | 0.00 | 79 | 1016.1 |
| 20260906034019 | 61 | 360 | 0.0 | 3.0 | 0.00 | 0.00 | 0.00 | 79 | 1016.1 |
| 20260906033519 | 61 | 360 | 0.0 | 3.0 | 0.00 | 0.00 | 0.00 | 79 | 1016.0 |
| 20260906033040 | 61 | 360 | 0.0 | 0.0 | 0.00 | 0.00 | 0.00 | 79 | 1016.0 |
| 20260906032519 | 61 | 360 | 0.0 | 1.0 | 0.00 | 0.00 | 0.00 | 79 | 1016.0 |
| 20260906032040 | 61 | 0 | 0.0 | 0.0 | 0.00 | 0.00 | 0.00 | 79 | 1015.8 |
| 20260906031519 | 61 | 0 | 0.0 | 0.0 | 0.00 | 0.00 | 0.00 | 79 | 1015.9 |
| 20260906031019 | 62 | 0 | 0.0 | 0.0 | 0.00 | 0.00 | 0.00 | 79 | 1016.0 |
| 20260906030520 | 62 | 0 | 0.0 | 0.0 | 0.00 | 0.00 | 0.00 | 79 | 1016.1 |
| 20260906030019 | 62 | 0 | 0.0 | 0.0 | 0.00 | 0.00 | 0.00 | 79 | 1016.1 |
| 20260906025519 | 62 | 360 | 0.0 | 0.0 | 0.00 | 0.00 | 0.00 | 79 | 1016.0 |
| 20260906025019 | 62 | 360 | 0.0 | 1.0 | 0.00 | 0.00 | 0.00 | 79 | 1016.0 |
| 20260906024519 | 62 | 360 | 0.0 | 3.0 | 0.00 | 0.00 | 0.00 | 79 | 1016.0 |
| 20260906024041 | 62 | 360 | 0.0 | 3.0 | 0.00 | 0.00 | 0.00 | 79 | 1016.0 |
| 20260906023519 | 62 | 360 | 1.0 | 4.0 | 0.00 | 0.00 | 0.00 | 79 | 1016.1 |
| 20260906023019 | 63 | 360 | 1.0 | 5.0 | 0.00 | 0.00 | 0.00 | 80 | 1016.1 |
| 20260906022541 | 63 | 360 | 1.0 | 4.0 | 0.00 | 0.00 | 0.00 | 80 | 1016.0 |
| 20260906022019 | 63 | 360 | 1.0 | 4.0 | 0.00 | 0.00 | 0.00 | 80 | 1016.0 |
| 20260906021519 | 63 | 360 | 1.0 | 7.0 | 0.00 | 0.00 | 0.00 | 80 | 1015.9 |
| 20260906021040 | 63 | 360 | 2.0 | 5.0 | 0.00 | 0.00 | 0.00 | 81 | 1015.9 |
| 20260906020540 | 63 | 360 | 2.0 | 4.0 | 0.00 | 0.00 | 0.00 | 81 | 1015.8 |
| 20260906014540 | 63 | 360 | 0.0 | 1.0 | 0.00 | 0.00 | 0.00 | 82 | 1015.7 |
| 20260906011540 | 65 | 360 | 2.0 | 5.0 | 0.00 | 0.00 | 0.00 | 81 | 1015.4 |
| 20260906011019 | 65 | 360 | 2.0 | 7.0 | 0.00 | 0.00 | 0.00 | 81 | 1015.4 |
| 20260906010519 | 65 | 360 | 2.0 | 7.0 | 0.00 | 0.00 | 0.00 | 81 | 1015.4 |
| 20260906010019 | 65 | 360 | 3.0 | 5.0 | 0.00 | 0.00 | 0.00 | 81 | 1015.4 |
| 20260906005622 | 65 | 360 | 4.0 | 12.0 | 0.00 | 0.00 | 0.00 | 81 | 1015.4 |
| 20260906005019 | 65 | 360 | 3.0 | 7.0 | 0.00 | 0.00 | 0.00 | 81 | 1015.4 |
| 20260906004519 | 65 | 360 | 3.0 | 7.0 | 0.00 | 0.00 | 0.00 | 80 | 1015.2 |
| 20260906004019 | 66 | 360 | 3.0 | 12.0 | 0.00 | 0.00 | 0.00 | 80 | 1015.3 |
| 20260906003519 | 66 | 360 | 4.0 | 7.0 | 0.00 | 0.00 | 0.00 | 79 | 1015.4 |
| 20260906003019 | 66 | 360 | 4.0 | 8.0 | 0.00 | 0.00 | 0.00 | 79 | 1015.4 |
| 20260906002540 | 66 | 360 | 3.0 | 7.0 | 0.00 | 0.00 | 0.00 | 78 | 1015.3 |
| 20260906002019 | 66 | 360 | 3.0 | 12.0 | 0.00 | 0.00 | 0.00 | 77 | 1015.2 |
| 20260906001520 | 67 | 360 | 4.0 | 11.0 | 0.00 | 0.00 | 0.00 | 75 | 1015.1 |
| 20260906001019 | 67 | 360 | 4.0 | 7.0 | 0.00 | 0.00 | 0.00 | 74 | 1015.1 |
| 20260906000540 | 67 | 360 | 4.0 | 12.0 | 0.00 | 0.00 | 0.00 | 73 | 1015.1 |
| 20260906000019 | 68 | 360 | 4.0 | 11.0 | 0.00 | 0.00 | 0.00 | 72 | 1015.0 |
| 20260905235540 | 68 | 360 | 4.0 | 8.0 | 0.00 | 0.00 | 0.00 | 71 | 1015.0 |
| 20260905235040 | 68 | 360 | 4.0 | 5.0 | 0.00 | 0.00 | 0.00 | 71 | 1015.0 |
| 20260905234540 | 68 | 360 | 4.0 | 8.0 | 0.00 | 0.00 | 0.00 | 70 | 1015.1 |
| 20260905234019 | 69 | 360 | 4.0 | 8.0 | 0.00 | 0.00 | 0.00 | 69 | 1015.2 |
| 20260905233519 | 69 | 360 | 5.0 | 11.0 | 0.00 | 0.00 | 0.00 | 69 | 1015.2 |
| 20260905233040 | 69 | 360 | 4.0 | 11.0 | 0.00 | 0.00 | 0.00 | 69 | 1015.2 |
| 20260905232519 | 70 | 360 | 4.0 | 11.0 | 0.00 | 0.00 | 0.00 | 69 | 1015.2 |
| 20260905232040 | 70 | 360 | 4.0 | 7.0 | 0.00 | 0.00 | 0.00 | 69 | 1015.2 |
| 20260905231519 | 70 | 360 | 4.0 | 8.0 | 0.00 | 0.00 | 0.00 | 69 | 1015.1 |
| 20260905231019 | 71 | 360 | 5.0 | 13.0 | 0.00 | 0.00 | 0.00 | 69 | 1015.2 |
| 20260905230519 | 71 | 360 | 4.0 | 13.0 | 0.00 | 0.00 | 0.00 | 68 | 1015.1 |
| 20260905230040 | 71 | 357 | 4.0 | 13.0 | 0.00 | 0.00 | 0.00 | 68 | 1015.0 |
| 20260905225519 | 72 | 358 | 5.0 | 12.0 | 0.00 | 0.00 | 0.00 | 68 | 1015.0 |
| 20260905225019 | 72 | 360 | 5.0 | 12.0 | 0.00 | 0.00 | 0.00 | 68 | 1015.0 |
| 20260905224520 | 73 | 358 | 5.0 | 13.0 | 0.00 | 0.00 | 0.00 | 68 | 1014.9 |
| 20260905224019 | 74 | 348 | 5.0 | 11.0 | 0.00 | 0.00 | 0.00 | 68 | 1014.9 |
| 20260905223519 | 74 | 342 | 5.0 | 13.0 | 0.00 | 0.00 | 0.00 | 68 | 1014.9 |
| 20260905223019 | 75 | 345 | 5.0 | 13.0 | 0.00 | 0.00 | 0.00 | 67 | 1015.0 |
| 20260905222519 | 75 | 349 | 4.0 | 13.0 | 0.00 | 0.00 | 0.00 | 66 | 1014.9 |
| 20260905222019 | 75 | 356 | 3.0 | 11.0 | 0.00 | 0.00 | 0.00 | 67 | 1014.9 |
| 20260905221519 | 75 | 360 | 4.0 | 11.0 | 0.00 | 0.00 | 0.00 | 66 | 1014.8 |
| 20260905221019 | 76 | 360 | 5.0 | 12.0 | 0.00 | 0.00 | 0.00 | 66 | 1015.0 |
| 20260905220519 | 76 | 349 | 5.0 | 12.0 | 0.00 | 0.00 | 0.00 | 67 | 1015.1 |
| 20260905220019 | 76 | 339 | 5.0 | 21.0 | 0.00 | 0.00 | 0.00 | 67 | 1015.0 |
| 20260905215519 | 76 | 347 | 6.0 | 13.0 | 0.00 | 0.00 | 0.00 | 68 | 1014.9 |
| 20260905215019 | 76 | 352 | 6.0 | 15.0 | 0.00 | 0.00 | 0.00 | 68 | 1014.9 |
| 20260905214519 | 77 | 342 | 6.0 | 16.0 | 0.00 | 0.00 | 0.00 | 68 | 1015.0 |
| 20260905214019 | 77 | 335 | 6.0 | 15.0 | 0.00 | 0.00 | 0.00 | 68 | 1015.0 |
| 20260905213540 | 78 | 338 | 5.0 | 13.0 | 0.00 | 0.00 | 0.00 | 68 | 1014.9 |
| 20260905213019 | 78 | 339 | 4.0 | 15.0 | 0.00 | 0.00 | 0.00 | 68 | 1014.8 |
| 20260905212519 | 78 | 338 | 4.0 | 11.0 | 0.00 | 0.00 | 0.00 | 68 | 1014.8 |
| 20260905212019 | 78 | 339 | 5.0 | 13.0 | 0.00 | 0.00 | 0.00 | 68 | 1014.8 |
| 20260905211519 | 79 | 332 | 4.0 | 13.0 | 0.00 | 0.00 | 0.00 | 68 | 1014.7 |
| 20260905211040 | 79 | 334 | 3.0 | 11.0 | 0.00 | 0.00 | 0.00 | 68 | 1014.8 |
| 20260905210519 | 79 | 341 | 4.0 | 12.0 | 0.00 | 0.00 | 0.00 | 68 | 1014.7 |
| 20260905210019 | 79 | 343 | 4.0 | 11.0 | 0.00 | 0.00 | 0.00 | 68 | 1014.6 |
| 20260905205519 | 79 | 345 | 5.0 | 12.0 | 0.00 | 0.00 | 0.00 | 68 | 1014.4 |
| 20260905205019 | 80 | 338 | 5.0 | 13.0 | 0.00 | 0.00 | 0.00 | 68 | 1014.5 |
| 20260905204519 | 80 | 341 | 4.0 | 15.0 | 0.00 | 0.00 | 0.00 | 68 | 1014.5 |
| 20260905204019 | 80 | 346 | 4.0 | 11.0 | 0.00 | 0.00 | 0.00 | 68 | 1014.5 |
| 20260905203540 | 80 | 344 | 3.0 | 15.0 | 0.00 | 0.00 | 0.00 | 68 | 1014.5 |
| 20260905203019 | 80 | 352 | 4.0 | 7.0 | 0.00 | 0.00 | 0.00 | 68 | 1014.6 |